TimePDT,TemperatureF,Dew PointF,Humidity,Sea Level PressureIn,VisibilityMPH,Wind Direction,Wind SpeedMPH,Gust SpeedMPH,PrecipitationIn,Events,Conditions,WindDirDegrees,DateUTC
12:53 AM,46.0,35.1,66,30.09,10.0,Calm,Calm,-,N/A,,Clear,0,2013-07-17 07:53:00
1:53 AM,44.1,34.0,68,30.09,10.0,Calm,Calm,-,N/A,,Clear,0,2013-07-17 08:53:00
2:53 AM,43.0,34.0,71,30.10,10.0,Calm,Calm,-,N/A,,Clear,0,2013-07-17 09:53:00
3:53 AM,39.9,32.0,73,30.12,10.0,Calm,Calm,-,N/A,,Clear,0,2013-07-17 10:53:00
4:53 AM,39.0,30.9,73,30.13,10.0,South,3.5,-,N/A,,Clear,190,2013-07-17 11:53:00
5:53 AM,37.0,30.0,76,30.15,10.0,SSW,3.5,-,N/A,,Clear,200,2013-07-17 12:53:00
6:53 AM,37.9,30.0,73,30.17,10.0,South,3.5,-,N/A,,Clear,190,2013-07-17 13:53:00
7:53 AM,50.0,28.0,43,30.16,10.0,South,3.5,-,N/A,,Clear,170,2013-07-17 14:53:00
8:53 AM,62.1,30.0,30,30.14,10.0,Calm,Calm,-,N/A,,Clear,0,2013-07-17 15:53:00
9:53 AM,69.1,28.9,22,30.12,10.0,Variable,4.6,-,N/A,,Clear,0,2013-07-17 16:53:00
10:53 AM,73.0,32.0,22,30.13,10.0,NNE,6.9,-,N/A,,Clear,20,2013-07-17 17:53:00
11:53 AM,73.9,33.1,22,30.14,10.0,Variable,6.9,-,N/A,,Clear,0,2013-07-17 18:53:00
12:53 PM,75.9,28.9,18,30.14,10.0,Variable,4.6,-,N/A,,Clear,0,2013-07-17 19:53:00
1:53 PM,79.0,27.0,15,30.13,10.0,NNE,8.1,-,N/A,,Clear,20,2013-07-17 20:53:00
2:53 PM,81.0,27.0,14,30.13,10.0,Variable,5.8,-,N/A,,Clear,0,2013-07-17 21:53:00
3:53 PM,81.0,30.0,16,30.13,10.0,NNE,11.5,18.4,N/A,,Clear,30,2013-07-17 22:53:00
4:53 PM,80.1,33.1,18,30.13,10.0,NNE,9.2,-,N/A,,Clear,30,2013-07-17 23:53:00
5:53 PM,79.0,39.9,25,30.14,10.0,NNE,6.9,-,N/A,,Clear,20,2013-07-18 00:53:00
6:53 PM,75.0,41.0,29,30.15,10.0,Calm,Calm,-,N/A,,Clear,0,2013-07-18 01:53:00
7:53 PM,70.0,39.9,33,30.14,10.0,Calm,Calm,-,N/A,,Clear,0,2013-07-18 02:53:00
8:53 PM,64.0,39.9,41,30.14,10.0,Calm,Calm,-,N/A,,Clear,0,2013-07-18 03:53:00
9:53 PM,60.1,42.1,51,30.14,10.0,Calm,Calm,-,N/A,,Clear,0,2013-07-18 04:53:00
10:53 PM,57.0,42.1,57,30.15,10.0,Calm,Calm,-,N/A,,Clear,0,2013-07-18 05:53:00
11:53 PM,54.0,42.1,64,30.16,10.0,South,3.5,-,N/A,,Clear,190,2013-07-18 06:53:00